When you browse on this site, cookies collect data to enhance your experience and personalize the content and advertising you see.
Visit our Privacy Policy to learn more. By continuing to use the site, you agree to this use of cookies and data.
  • In Czech Republic
  • List of Countries
  • For 7 days
  • Water Temperature
  • Satellite Maps
  • Weather Map
  • Weather Widgets
  • user-avatar
    Login

    Hourly Weather Grand Bassam

    Today, 16 December, Sunday

    Time Temperature Precipitation Wind Pressure Humidity
    00:00 +28°C° 0 mm 3 mps 759 mmHg 90%
    01:00 +28°C° 0 mm 2 mps 759 mmHg 91%
    02:00 +27°C° 0 mm 2 mps 759 mmHg 91%
    03:00 +27°C° 0 mm 2 mps 759 mmHg 92%
    04:00 +27°C° 0 mm 2 mps 759 mmHg 93%
    05:00 +27°C° 0 mm 2 mps 759 mmHg 93%
    06:00 +27°C° 0 mm 2 mps 759 mmHg 93%
    07:00 +29°C° 0.1 mm 2 mps 759 mmHg 85%
    08:00 +30°C° 0.1 mm 2 mps 760 mmHg 77%
    09:00 +32°C° 0.1 mm 2 mps 760 mmHg 69%
    10:00 +34°C° 0 mm 2 mps 760 mmHg 65%
    11:00 +35°C° 0 mm 2 mps 759 mmHg 60%
    12:00 +37°C° 0 mm 3 mps 759 mmHg 53%
    13:00 +36°C° 0.1 mm 3 mps 759 mmHg 54%
    14:00 +36°C° 0.1 mm 3 mps 758 mmHg 55%
    15:00 +35°C° 0.1 mm 3 mps 758 mmHg 55%
    16:00 +34°C° 0.1 mm 3 mps 758 mmHg 63%
    17:00 +31°C° 0.1 mm 3 mps 758 mmHg 70%
    18:00 +30°C° 0.1 mm 3 mps 758 mmHg 78%
    19:00 +29°C° 0.5 mm 4 mps 759 mmHg 80%
    20:00 +29°C° 0.5 mm 4 mps 759 mmHg 82%
    21:00 +29°C° 0.5 mm 4 mps 760 mmHg 84%
    22:00 +28°C° 0 mm 4 mps 760 mmHg 85%
    23:00 +28°C° 0 mm 4 mps 760 mmHg 87%

    Tomorrow, 17 December, Monday

    Time Temperature Precipitation Wind Pressure Humidity
    00:00 +28°C° 0 mm 4 mps 760 mmHg 88%
    01:00 +28°C° 0 mm 4 mps 759 mmHg 89%
    02:00 +27°C° 0 mm 3 mps 759 mmHg 90%
    03:00 +27°C° 0 mm 3 mps 758 mmHg 92%
    04:00 +27°C° 0 mm 3 mps 759 mmHg 92%
    05:00 +27°C° 0 mm 3 mps 759 mmHg 93%
    06:00 +27°C° 0 mm 3 mps 759 mmHg 93%
    07:00 +28°C° 0 mm 3 mps 759 mmHg 85%
    08:00 +30°C° 0 mm 3 mps 760 mmHg 77%
    09:00 +33°C° 0 mm 3 mps 760 mmHg 69%
    10:00 +33°C° 0.3 mm 3 mps 760 mmHg 65%
    11:00 +34°C° 0.3 mm 3 mps 760 mmHg 62%
    12:00 +35°C° 0.3 mm 2 mps 759 mmHg 58%
    13:00 +35°C° 0.4 mm 3 mps 759 mmHg 57%
    14:00 +35°C° 0.4 mm 3 mps 758 mmHg 57%
    15:00 +35°C° 0.4 mm 3 mps 757 mmHg 56%
    16:00 +33°C° 0.5 mm 3 mps 758 mmHg 64%
    17:00 +31°C° 0.5 mm 3 mps 758 mmHg 72%
    18:00 +29°C° 0.5 mm 3 mps 758 mmHg 79%
    19:00 +29°C° 0.1 mm 4 mps 758 mmHg 82%
    20:00 +28°C° 0.1 mm 4 mps 759 mmHg 84%
    21:00 +28°C° 0.1 mm 4 mps 759 mmHg 86%
    22:00 +28°C° 0 mm 4 mps 759 mmHg 88%
    23:00 +28°C° 0 mm 4 mps 759 mmHg 89%

    Day after tomorrow, 18 December, Tuesday

    Time Temperature Precipitation Wind Pressure Humidity
    00:00 +27°C° 0 mm 4 mps 759 mmHg 90%
    01:00 +27°C° 0 mm 4 mps 759 mmHg 91%
    02:00 +27°C° 0 mm 3 mps 758 mmHg 91%
    03:00 +27°C° 0 mm 3 mps 758 mmHg 92%
    04:00 +27°C° 0.1 mm 3 mps 758 mmHg 92%
    05:00 +27°C° 0.1 mm 3 mps 758 mmHg 93%
    06:00 +27°C° 0.1 mm 3 mps 758 mmHg 93%
    07:00 +28°C° 0 mm 3 mps 759 mmHg 86%
    08:00 +29°C° 0 mm 3 mps 759 mmHg 80%
    09:00 +31°C° 0 mm 3 mps 760 mmHg 73%
    10:00 +31°C° 0 mm 3 mps 760 mmHg 71%
    11:00 +33°C° 0 mm 4 mps 759 mmHg 68%
    12:00 +33°C° 0 mm 4 mps 759 mmHg 65%
    13:00 +34°C° 0.2 mm 4 mps 758 mmHg 64%
    14:00 +34°C° 0.2 mm 4 mps 758 mmHg 62%
    15:00 +34°C° 0.2 mm 5 mps 757 mmHg 61%
    16:00 +33°C° 0.1 mm 4 mps 757 mmHg 67%
    17:00 +32°C° 0.1 mm 4 mps 758 mmHg 73%
    18:00 +29°C° 0.1 mm 4 mps 758 mmHg 78%
    19:00 +29°C° 0.1 mm 4 mps 759 mmHg 81%
    20:00 +28°C° 0.1 mm 4 mps 759 mmHg 84%
    21:00 +28°C° 0.1 mm 3 mps 760 mmHg 86%
    22:00 +28°C° 0 mm 4 mps 760 mmHg 87%
    23:00 +28°C° 0 mm 4 mps 760 mmHg 88%

    19 December, Wednesday

    Time Temperature Precipitation Wind Pressure Humidity
    00:00 +27°C° 0 mm 4 mps 759 mmHg 89%
    01:00 +27°C° 0 mm 4 mps 759 mmHg 90%
    02:00 +27°C° 0 mm 4 mps 758 mmHg 91%
    03:00 +27°C° 0 mm 4 mps 758 mmHg 91%
    04:00 +27°C° 0.1 mm 4 mps 758 mmHg 92%
    05:00 +27°C° 0.1 mm 3 mps 758 mmHg 92%
    06:00 +27°C° 0.1 mm 3 mps 759 mmHg 92%
    07:00 +28°C° 0 mm 3 mps 759 mmHg 86%
    08:00 +29°C° 0 mm 3 mps 760 mmHg 81%
    09:00 +30°C° 0 mm 4 mps 760 mmHg 75%
    10:00 +32°C° 0.1 mm 4 mps 760 mmHg 73%
    11:00 +32°C° 0.1 mm 4 mps 759 mmHg 72%
    12:00 +32°C° 0.1 mm 4 mps 759 mmHg 70%
    13:00 +33°C° 0.3 mm 4 mps 758 mmHg 67%
    14:00 +34°C° 0.3 mm 4 mps 758 mmHg 64%
    15:00 +34°C° 0.3 mm 4 mps 757 mmHg 62%
    16:00 +33°C° 0 mm 4 mps 757 mmHg 66%
    17:00 +32°C° 0 mm 4 mps 757 mmHg 71%
    18:00 +30°C° 0 mm 4 mps 758 mmHg 76%
    19:00 +29°C° 0 mm 3 mps 758 mmHg 79%
    20:00 +29°C° 0 mm 3 mps 759 mmHg 82%
    21:00 +28°C° 0 mm 3 mps 759 mmHg 84%
    22:00 +28°C° 0 mm 3 mps 759 mmHg 86%
    23:00 +28°C° 0 mm 4 mps 759 mmHg 87%

    20 December, Thursday

    Time Temperature Precipitation Wind Pressure Humidity
    00:00 +28°C° 0 mm 4 mps 759 mmHg 88%
    01:00 +28°C° 0 mm 4 mps 758 mmHg 89%
    02:00 +27°C° 0 mm 4 mps 758 mmHg 90%
    03:00 +27°C° 0 mm 4 mps 757 mmHg 92%
    04:00 +27°C° 0.6 mm 4 mps 757 mmHg 92%
    05:00 +27°C° 0.6 mm 4 mps 758 mmHg 93%
    06:00 +27°C° 0.6 mm 4 mps 758 mmHg 93%
    07:00 +28°C° 0.1 mm 4 mps 758 mmHg 87%
    08:00 +29°C° 0.1 mm 4 mps 759 mmHg 81%
    09:00 +32°C° 0.1 mm 4 mps 760 mmHg 75%
    10:00 +31°C° 0.7 mm 3 mps 759 mmHg 73%
    11:00 +33°C° 0.7 mm 3 mps 759 mmHg 71%
    12:00 +32°C° 0.7 mm 2 mps 758 mmHg 68%
    13:00 +33°C° 0.8 mm 3 mps 758 mmHg 68%
    14:00 +33°C° 0.8 mm 3 mps 757 mmHg 68%
    15:00 +33°C° 0.8 mm 3 mps 757 mmHg 68%
    16:00 +31°C° 0.1 mm 3 mps 757 mmHg 71%
    17:00 +30°C° 0.1 mm 3 mps 757 mmHg 75%
    18:00 +29°C° 0.1 mm 3 mps 758 mmHg 78%
    19:00 +29°C° 0 mm 3 mps 758 mmHg 80%
    20:00 +28°C° 0 mm 3 mps 759 mmHg 82%
    21:00 +28°C° 0 mm 3 mps 759 mmHg 84%
    22:00 +27°C° 0 mm 3 mps 759 mmHg 85%
    23:00 +27°C° 0 mm 4 mps 759 mmHg 86%

    21 December, Friday

    Time Temperature Precipitation Wind Pressure Humidity
    00:00 +27°C° 0 mm 4 mps 758 mmHg 87%
    01:00 +27°C° 0 mm 4 mps 758 mmHg 88%
    02:00 +27°C° 0 mm 4 mps 758 mmHg 89%
    03:00 +27°C° 0 mm 3 mps 757 mmHg 90%
    04:00 +27°C° 0 mm 3 mps 758 mmHg 90%
    05:00 +27°C° 0 mm 3 mps 758 mmHg 90%
    06:00 +27°C° 0 mm 3 mps 758 mmHg 90%
    07:00 +28°C° 0.1 mm 3 mps 759 mmHg 84%
    08:00 +30°C° 0.1 mm 3 mps 759 mmHg 78%
    09:00 +31°C° 0.1 mm 3 mps 760 mmHg 71%
    10:00 +33°C° 0.3 mm 3 mps 759 mmHg 68%
    11:00 +34°C° 0.3 mm 3 mps 759 mmHg 64%
    12:00 +34°C° 0.3 mm 3 mps 758 mmHg 60%
    13:00 +34°C° 0.3 mm 3 mps 758 mmHg 61%
    14:00 +34°C° 0.3 mm 3 mps 757 mmHg 63%
    15:00 +33°C° 0.3 mm 3 mps 757 mmHg 64%
    16:00 +31°C° 0.4 mm 3 mps 757 mmHg 69%
    17:00 +30°C° 0.4 mm 3 mps 757 mmHg 74%
    18:00 +29°C° 0.4 mm 2 mps 757 mmHg 79%
    19:00 +28°C° 0.1 mm 2 mps 758 mmHg 82%
    20:00 +28°C° 0.1 mm 2 mps 758 mmHg 85%
    21:00 +27°C° 0.1 mm 2 mps 759 mmHg 88%
    22:00 +27°C° 0.1 mm 3 mps 759 mmHg 88%
    23:00 +27°C° 0.1 mm 3 mps 758 mmHg 89%
    Show more